Regional Weather Roundup
Issued by NWS

Home | Current Version | Previous Version | Graphics & Text | Print | Product List | Glossary Off
Versions: 1 2 3 4 5 6 7 8 9 10 11 12 13 14 15 16 17 18 19 20 21 22 23 24 25 26 27 28 29 30 31 32 33 34 35 36 37 38 39 40 41 42 43 44 45 46 47 48 49 50

000
ASUS43 KLSX 262357
RWRMO

WEATHER SUMMARY FOR MISSOURI
NATIONAL WEATHER SERVICE SPRINGFIELD MO
700 PM CDT FRI AUG 26 2016

NOTE: "FAIR" INDICATES FEW OR NO CLOUDS BELOW 12,000 FEET WITH NO
       SIGNIFICANT WEATHER AND/OR OBSTRUCTIONS TO VISIBILITY.
       CURRENT SKY AND/OR WEATHER CONDITIONS ARE NOT AVAILABLE FOR
       CHILLICOTHE AND FARMINGTON.

MOZ001>031-035>038-043-044-053-054-270100-
...NORTHERN AND WESTERN MISSOURI...

CITY           SKY/WX    TMP DP  RH WIND       PRES   REMARKS
KANSAS CTY INT LGT RAIN  71  66  84 NW18G28   29.98R
6HR MIN TEMP:  71; 6HR MAX TEMP:  83; 6HR PCP: TRACE;

LEE`S SUMMIT   CLOUDY    79  72  79 SE9       29.98S
6HR MIN TEMP:  77; 6HR MAX TEMP:  84; 6HR PCP:  0.10;

ST JOSEPH      CLOUDY    69  67  93 N10       29.98F
6HR MIN TEMP:  68; 6HR MAX TEMP:  81; 6HR PCP:  1.13;


$$
MOZ066>068-077>081-088>096-101>105-270100-
...SOUTHWEST MISSOURI...

CITY           SKY/WX    TMP DP  RH WIND       PRES   REMARKS
SPRINGFIELD    MOCLDY    79  71  76 S6        30.04S
6HR MIN TEMP:  78; 6HR MAX TEMP:  82; 6HR PCP: TRACE;

JOPLIN         CLOUDY    78  70  76 S7        30.03R
6HR MIN TEMP:  78; 6HR MAX TEMP:  83;

BRANSON        MOCLDY    79  72  78 CALM      30.06R

$$
MOZ032>034-039>042-045>050-055>058-069>072-270100-
...CENTRAL MISSOURI...

CITY           SKY/WX    TMP DP  RH WIND       PRES   REMARKS
COLUMBIA       NOT AVBL
JEFFERSON CITY CLOUDY    80  75  84 SE5       30.01S
6HR MIN TEMP:  79; 6HR MAX TEMP:  83; 6HR PCP:  0.01;

ROLLA          MOCLDY    77  69  76 E10       30.05R
6HR MIN TEMP:  77; 6HR MAX TEMP:  84; 6HR PCP: TRACE;

SEDALIA        CLOUDY    80  73  79 SE6       30.02F
6HR MIN TEMP:  76; 6HR MAX TEMP:  83; 6HR PCP: TRACE;


$$
MOZ051-052-059>065-270100-
...EAST CENTRAL MISSOURI...

CITY           SKY/WX    TMP DP  RH WIND       PRES   REMARKS
ST LOUIS INTL  CLOUDY    84  71  65 E14       30.04S
6HR MIN TEMP:  84; 6HR MAX TEMP:  88;


$$
MOZ072>076-082>087-097>100-106>115-270100-
...SOUTH CENTRAL AND SOUTHEAST MISSOURI...

CITY           SKY/WX    TMP DP  RH WIND       PRES   REMARKS
CAPE GIRARDEAU CLOUDY    80  74  81 S12       30.07R
6HR MIN TEMP:  76; 6HR MAX TEMP:  92; 6HR PCP: TRACE;

POPLAR BLUFF   CLOUDY    76  71  85 S9        30.08R
6HR MIN TEMP:  76; 6HR MAX TEMP:  87;

WEST PLAINS    CLOUDY    83  69  62 SE7       30.08S
6HR MIN TEMP:  81; 6HR MAX TEMP:  87;


$$


USA.gov is the U.S. government's official web portal to all federal, state and local government web resources and services.